EN

Hourly Weather Padniewo

Today, 2 March, Tuesday

Time Temperature Precipitation Wind Pressure Humidity
00:00 +1°C° 0 mm 3 mps 764 mmHg 93%
01:00 0°C° 0 mm 3 mps 764 mmHg 94%
02:00 0°C° 0 mm 3 mps 764 mmHg 94%
03:00 0°C° 0 mm 3 mps 763 mmHg 94%
04:00 0°C° 0 mm 3 mps 763 mmHg 95%
05:00 0°C° 0 mm 3 mps 763 mmHg 95%
06:00 0°C° 0 mm 3 mps 763 mmHg 95%
07:00 -1°C° 0 mm 3 mps 763 mmHg 95%
08:00 0°C° 0 mm 4 mps 763 mmHg 89%
09:00 +3°C° 0 mm 4 mps 763 mmHg 83%
10:00 +4°C° 0 mm 4 mps 763 mmHg 78%
11:00 +5°C° 0 mm 4 mps 763 mmHg 73%
12:00 +7°C° 0 mm 4 mps 763 mmHg 68%
13:00 +8°C° 0 mm 4 mps 763 mmHg 63%
14:00 +9°C° 0 mm 3 mps 763 mmHg 64%
15:00 +9°C° 0 mm 3 mps 763 mmHg 64%
16:00 +9°C° 0 mm 3 mps 762 mmHg 64%
17:00 +8°C° 0 mm 3 mps 762 mmHg 69%
18:00 +6°C° 0 mm 2 mps 762 mmHg 75%
19:00 +5°C° 0 mm 2 mps 762 mmHg 80%
20:00 +4°C° 0 mm 2 mps 763 mmHg 81%
21:00 +4°C° 0 mm 2 mps 763 mmHg 83%
22:00 +4°C° 0 mm 1 mps 763 mmHg 85%
23:00 +4°C° 0 mm 1 mps 763 mmHg 85%

Tomorrow, 3 March, Wednesday

Time Temperature Precipitation Wind Pressure Humidity
00:00 +2°C° 0 mm 0 mps 763 mmHg 85%
01:00 +2°C° 0 mm 0 mps 763 mmHg 86%
02:00 +2°C° 0 mm 0 mps 762 mmHg 86%
03:00 +1°C° 0 mm 0 mps 762 mmHg 85%
04:00 +2°C° 0 mm 1 mps 761 mmHg 85%
05:00 +2°C° 0 mm 1 mps 761 mmHg 86%
06:00 +2°C° 0 mm 1 mps 761 mmHg 86%
07:00 +2°C° 0 mm 1 mps 761 mmHg 86%
08:00 +4°C° 0 mm 1 mps 761 mmHg 80%
09:00 +6°C° 0 mm 1 mps 760 mmHg 73%
10:00 +6°C° 0 mm 2 mps 760 mmHg 66%
11:00 +7°C° 0 mm 2 mps 760 mmHg 62%
12:00 +9°C° 0 mm 2 mps 759 mmHg 59%
13:00 +10°C° 0 mm 2 mps 759 mmHg 55%
14:00 +10°C° 0 mm 2 mps 758 mmHg 58%
15:00 +10°C° 0 mm 2 mps 757 mmHg 61%
16:00 +10°C° 0 mm 3 mps 756 mmHg 64%
17:00 +9°C° 0 mm 3 mps 756 mmHg 69%
18:00 +7°C° 0 mm 3 mps 756 mmHg 73%
19:00 +5°C° 0 mm 3 mps 755 mmHg 78%
20:00 +5°C° 0 mm 4 mps 754 mmHg 79%
21:00 +4°C° 0 mm 4 mps 754 mmHg 81%
22:00 +4°C° 0 mm 4 mps 753 mmHg 83%
23:00 +4°C° 0 mm 4 mps 753 mmHg 85%

Day after tomorrow, 4 March, Thursday

Time Temperature Precipitation Wind Pressure Humidity
00:00 +4°C° 0 mm 4 mps 752 mmHg 87%
01:00 +3°C° 0 mm 4 mps 752 mmHg 89%
02:00 +3°C° 0 mm 4 mps 751 mmHg 90%
03:00 +3°C° 0 mm 4 mps 751 mmHg 91%
04:00 +3°C° 0 mm 5 mps 750 mmHg 92%
05:00 +2°C° 0 mm 5 mps 750 mmHg 93%
06:00 +2°C° 0 mm 5 mps 749 mmHg 93%
07:00 +2°C° 0 mm 5 mps 749 mmHg 94%
08:00 +2°C° 0 mm 5 mps 749 mmHg 89%
09:00 +3°C° 0 mm 6 mps 749 mmHg 85%
10:00 +3°C° 0 mm 6 mps 749 mmHg 81%
11:00 +3°C° 0 mm 6 mps 749 mmHg 79%
12:00 +3°C° 0 mm 6 mps 749 mmHg 77%
13:00 +3°C° 0 mm 6 mps 749 mmHg 76%
14:00 +2°C° 0 mm 5 mps 748 mmHg 76%
15:00 +2°C° 0 mm 5 mps 748 mmHg 77%
16:00 +1°C° 0 mm 4 mps 748 mmHg 77%
17:00 +1°C° 0 mm 4 mps 748 mmHg 81%
18:00 0°C° 0 mm 4 mps 748 mmHg 85%
19:00 0°C° 0 mm 4 mps 749 mmHg 88%
20:00 -1°C° 0.1 mm 4 mps 749 mmHg 86%
21:00 -1°C° 0.1 mm 4 mps 749 mmHg 84%
22:00 -2°C° 0.1 mm 4 mps 749 mmHg 82%
23:00 -2°C° 0 mm 4 mps 750 mmHg 81%

5 March, Friday

Time Temperature Precipitation Wind Pressure Humidity
00:00 -3°C° 0 mm 4 mps 750 mmHg 80%
01:00 -3°C° 0 mm 4 mps 750 mmHg 79%
02:00 -4°C° 0 mm 4 mps 750 mmHg 80%
03:00 -4°C° 0 mm 4 mps 750 mmHg 81%
04:00 -4°C° 0 mm 3 mps 750 mmHg 82%
05:00 -4°C° 0 mm 3 mps 751 mmHg 81%
06:00 -4°C° 0 mm 3 mps 751 mmHg 80%
07:00 -4°C° 0 mm 3 mps 752 mmHg 78%
08:00 -2°C° 0 mm 3 mps 752 mmHg 70%
09:00 -2°C° 0 mm 4 mps 752 mmHg 62%
10:00 0°C° 0 mm 4 mps 753 mmHg 54%
11:00 0°C° 0.1 mm 4 mps 753 mmHg 51%
12:00 +1°C° 0.1 mm 4 mps 753 mmHg 47%
13:00 +3°C° 0.1 mm 4 mps 753 mmHg 44%
14:00 +1°C° 0.1 mm 4 mps 753 mmHg 45%
15:00 +1°C° 0.1 mm 4 mps 754 mmHg 45%
16:00 +1°C° 0.1 mm 5 mps 754 mmHg 46%
17:00 0°C° 0 mm 4 mps 754 mmHg 52%
18:00 -1°C° 0 mm 4 mps 755 mmHg 59%
19:00 -3°C° 0 mm 4 mps 756 mmHg 66%
20:00 -3°C° 0 mm 4 mps 756 mmHg 69%
21:00 -3°C° 0 mm 4 mps 757 mmHg 73%
22:00 -4°C° 0 mm 4 mps 757 mmHg 76%
23:00 -4°C° 0 mm 4 mps 758 mmHg 75%

6 March, Saturday

Time Temperature Precipitation Wind Pressure Humidity
00:00 -4°C° 0 mm 4 mps 758 mmHg 73%
01:00 -4°C° 0 mm 4 mps 758 mmHg 72%
02:00 -4°C° 0 mm 3 mps 759 mmHg 70%
03:00 -4°C° 0 mm 3 mps 759 mmHg 68%
04:00 -4°C° 0 mm 3 mps 759 mmHg 66%
05:00 -4°C° 0 mm 3 mps 759 mmHg 67%
06:00 -4°C° 0 mm 3 mps 760 mmHg 68%
07:00 -4°C° 0 mm 3 mps 760 mmHg 69%
08:00 -2°C° 0 mm 3 mps 760 mmHg 62%
09:00 -1°C° 0 mm 3 mps 760 mmHg 55%
10:00 +1°C° 0 mm 3 mps 760 mmHg 48%
11:00 0°C° 0 mm 4 mps 760 mmHg 45%
12:00 +1°C° 0 mm 4 mps 760 mmHg 42%
13:00 +2°C° 0 mm 5 mps 760 mmHg 40%
14:00 +1°C° 0 mm 5 mps 759 mmHg 41%
15:00 +1°C° 0 mm 5 mps 759 mmHg 41%
16:00 +1°C° 0 mm 6 mps 759 mmHg 42%
17:00 0°C° 0 mm 5 mps 758 mmHg 47%
18:00 -1°C° 0 mm 5 mps 758 mmHg 53%
19:00 -2°C° 0 mm 5 mps 758 mmHg 58%
20:00 -3°C° 0 mm 6 mps 758 mmHg 63%
21:00 -3°C° 0 mm 6 mps 757 mmHg 69%
22:00 -3°C° 0 mm 6 mps 757 mmHg 75%
23:00 -3°C° 0.1 mm 6 mps 757 mmHg 80%

7 March, Sunday

Time Temperature Precipitation Wind Pressure Humidity
00:00 -3°C° 0.1 mm 7 mps 756 mmHg 85%
01:00 -3°C° 0.1 mm 7 mps 756 mmHg 91%
02:00 -3°C° 0 mm 7 mps 755 mmHg 89%
03:00 -4°C° 0 mm 8 mps 755 mmHg 87%
04:00 -4°C° 0 mm 8 mps 754 mmHg 85%
05:00 -4°C° 0 mm 8 mps 754 mmHg 84%
06:00 -4°C° 0 mm 8 mps 754 mmHg 82%
07:00 -4°C° 0 mm 8 mps 753 mmHg 81%
08:00 -2°C° 0 mm 8 mps 753 mmHg 80%
09:00 -2°C° 0 mm 8 mps 753 mmHg 79%
10:00 -2°C° 0 mm 8 mps 752 mmHg 78%
11:00 -1°C° 0 mm 9 mps 752 mmHg 76%
12:00 -1°C° 0 mm 9 mps 751 mmHg 74%
13:00 0°C° 0 mm 9 mps 751 mmHg 72%
14:00 -1°C° 0 mm 9 mps 750 mmHg 73%
15:00 -1°C° 0 mm 9 mps 750 mmHg 75%
16:00 -1°C° 0 mm 9 mps 749 mmHg 76%
17:00 -1°C° 0.1 mm 9 mps 749 mmHg 82%
18:00 -2°C° 0.1 mm 8 mps 748 mmHg 87%
19:00 -2°C° 0.1 mm 8 mps 748 mmHg 93%
20:00 -4°C° 0.5 mm 8 mps 748 mmHg 92%
21:00 -3°C° 0.5 mm 7 mps 749 mmHg 91%
22:00 -4°C° 0.5 mm 6 mps 749 mmHg 91%
23:00 -5°C° 0 mm 5 mps 749 mmHg 90%
Show more

We Need Your Consent

Meteoprog and our Service Providers may store and access personal data such as cookies, device identifiers or other similar technologies on your device and process such data to personalise content and ads, as well as provide social media features and to analyse the traffic.

  • Store and/or access information on your device

    Cookies, device identifiers or other information can be stored or accessed on your device for the purposes indicated above.

  • Personalised ads and content, ad and content measurement, audience insights, and products development

    Ads and content can be personalised based on a profile. More data can be added to better personalise ads and content. Ad and content performance can be measured. Insights about the audience who saw the ads and content can be derived. Such data can be used to develop or improve user’s experience, systems and software.

By clicking ‘I Agree’ you will allow the use of indicated cookies, device identifiers, web beacons or other similar technologies. Your settings can be changed in the browser on your device.

For certain purposes, legitimate interests may be relied on, rather than consent. You can read more about this in our Privacy and Cookie Policy.